Regional Weather Roundup
Issued by NWS Goodland, KS

Home | Current Version | Previous Version | Graphics & Text | Print | Product List | Glossary On
Versions: 1 2 3 4 5 6 7 8 9 10 11 12 13 14 15 16 17 18 19 20 21 22 23 24 25 26 27 28 29 30 31 32 33 34 35 36 37 38 39 40 41 42 43 44 45 46 47 48 49 50
000
ASUS43 KGLD 280308
RWRGLD

GOODLAND FORECAST AREA HOURLY WEATHER ROUNDUP
NATIONAL WEATHER SERVICE GOODLAND KS
900 PM MDT FRI MAY 27 2016

...OFFICIAL OBSERVATIONS...

CITY           SKY/WX    TMP DP  RH WIND       PRES   REMARKS
GOODLAND KS    MOCLDY    50  48  93 N5        29.82R
HILL CITY KS   CLOUDY    62  59  90 NW10      29.72R
IMPERIAL NEB   PTCLDY    52  48  86 NW5       29.82R
MCCOOK NEB     LGT RAIN  55  50  83 N12       29.77S
AKRON CO       CLEAR     48  45  89 NW10      29.90R
BURLINGTON CO  CLEAR     48  45  89 NW8       29.87R
LIMON CO       CLOUDY    45  42  89 NW8       29.94R
$$

...UNOFFICIAL OBSERVATIONS...

CITY           SKY/WX    TMP DP  RH WIND       PRES   REMARKS
GOVE KS          N/A     61  32  33 MISG        N/A
LENORA KS        N/A     60  32  34 MISG        N/A
SHARON SPRINGS   N/A     50  47  90 NW10        N/A
KIT CARSON CO    N/A     50  46  85 MISG        N/A
YUMA CO          N/A     51  47  88 NW5         N/A
$$



USA.gov is the U.S. government's official web portal to all federal, state and local government web resources and services.